Regional Weather Roundup
Issued by NWS

Home | Current Version | Previous Version | Text Only | Print | Product List | Glossary Off
Versions: 1 2 3 4 5 6 7 8 9 10 11 12 13 14 15 16 17 18 19 20 21 22 23 24 25 26 27 28 29 30 31 32 33 34 35 36 37 38 39 40 41 42 43 44 45 46 47 48 49 50

155
ASUS43 KLSX 311307
RWRMO

WEATHER SUMMARY FOR MISSOURI
NATIONAL WEATHER SERVICE SPRINGFIELD MO
800 AM CDT TUE MAY 31 2016

NOTE: "FAIR" INDICATES FEW OR NO CLOUDS BELOW 12,000 FEET WITH NO
       SIGNIFICANT WEATHER AND/OR OBSTRUCTIONS TO VISIBILITY.
       CURRENT SKY AND/OR WEATHER CONDITIONS ARE NOT AVAILABLE FOR
       CHILLICOTHE AND FARMINGTON.

MOZ001>031-035>038-043-044-053-054-311400-
...NORTHERN AND WESTERN MISSOURI...

CITY           SKY/WX    TMP DP  RH WIND       PRES   REMARKS
KANSAS CTY INT CLOUDY    66  61  84 E8        29.93F
KANSAS C DTWN  PTSUNNY   67  62  84 E7        29.92F
LEE`S SUMMIT   CLOUDY    66  63  90 SE9       29.94F
ST JOSEPH      SUNNY     67  62  84 SE9       29.92S
CHILLICOTHE      N/A     65  64  97 CALM      29.98S
KIRKSVILLE     CLOUDY    65  62  90 NW3       30.00S

$$
MOZ066>068-077>081-088>096-101>105-311400-
...SOUTHWEST MISSOURI...

CITY           SKY/WX    TMP DP  RH WIND       PRES   REMARKS
SPRINGFIELD    MOSUNNY   68  62  81 SE9       29.95S
JOPLIN         CLOUDY    69  65  86 S6        29.95R
BRANSON        CLOUDY    64  64 100 SE6       29.98S

$$
MOZ032>034-039>042-045>050-055>058-069>072-311400-
...CENTRAL MISSOURI...

CITY           SKY/WX    TMP DP  RH WIND       PRES   REMARKS
COLUMBIA       CLOUDY    66  63  90 SE6       29.98R
JEFFERSON CITY CLOUDY    66  63  90 E3        29.98S
ROLLA          CLOUDY    66  60  81 E6        29.98S
SEDALIA        CLOUDY    66  62  87 SE6       29.98S
WARRENSBURG    CLOUDY    64  63  94 SE3       29.95F

$$
MOZ051-052-059>065-311400-
...EAST CENTRAL MISSOURI...

CITY           SKY/WX    TMP DP  RH WIND       PRES   REMARKS
ST LOUIS INTL  LGT RAIN  71  62  73 N3        29.99F
SPIRIT OF STL  CLOUDY    67  65  93 CALM      29.98F
ST CHARLES     CLOUDY    69  64  84 S5        29.99R

$$
MOZ072>076-082>087-097>100-106>115-311400-
...SOUTH CENTRAL AND SOUTHEAST MISSOURI...

CITY           SKY/WX    TMP DP  RH WIND       PRES   REMARKS
CAPE GIRARDEAU CLOUDY    72  67  84 E3        29.97R
FARMINGTON     CLOUDY    67  62  84 CALM      30.01R
POPLAR BLUFF   CLOUDY    68  66  93 N6        29.98S
WEST PLAINS    LGT RAIN  65  62  90 CALM      30.02R FOG

$$



USA.gov is the U.S. government's official web portal to all federal, state and local government web resources and services.